{"data":{"norad_id":56289,"epoch":"2026-09-20T10:55:04.733760Z","epoch_age_seconds":112494,"freshness":"FRESH","line1":"1 56289U 23056D   26263.45491590  .00001986  00000+0  81667-4 0  9997","line2":"2 56289  43.0044 163.1042 0001406 260.2980  99.7713 15.27579884190127","mean_motion":15.27579884,"eccentricity":0.0001406,"inclination_deg":43.0044,"raan_deg":163.1042,"arg_perigee_deg":260.298,"mean_anomaly_deg":99.7713,"bstar":8.1667e-5,"rev_number":19012,"period_min":94.266755871996,"perigee_km":482.08476057147,"apogee_km":484.01412619934,"semimajor_km":6861.1864433854,"source":"CELESTRAK","updated_at":"2026-09-21T09:00:33.391770Z"}}